Weather History for Tarboro, NC

Change the Weather History Date:

Sunday, May 13, 2012

  Actual Average Record
Temperature  
Mean Temperature 67 °F -  
Max Temperature 91 °F 81 °F 94 °F (1970)
Min Temperature 56 °F 55 °F 43 °F (1989)
Cooling Degree Days 2    
Growing Degree Days 17 (Base 50)    
Moisture  
Dew Point 56 °F    
Average Humidity 67    
Maximum Humidity 91    
Minimum Humidity 39    
Precipitation  
Precipitation 0.00 in - - ()
Sea Level Pressure  
Sea Level Pressure 30.23 in    
Wind  
Wind Speed 3 mph (South)    
Max Wind Speed 9 mph    
Max Gust Speed 10 mph    
Visibility 10 miles    
Events Rain    
Averages and records for this station are not official NWS values.
T = Trace of Precipitation, MM = Missing Value Source: NWS Daily Summary

Daily Weather History Graph

Daily Weather History Graph

Search for Another Location

Airport:

Trip Planner

Search our weather history database for the weather conditions in past years. The results will help you decide how hot, cold, wet, or windy it might be!

Date:

Astronomy

May. 13, 2012 Rise Set
Actual Time 6:05 AM EDT 8:07 PM EDT
Civil Twilight 5:37 AM EDT 8:36 PM EDT
Nautical Twilight 5:02 AM EDT 9:10 PM EDT
Astronomical Twilight 4:25 AM EDT 9:48 PM EDT
Moon 1:56 AM EDT (5/13) 1:39 PM EDT (5/13)
Length of Visible Light 14h 58m
Length of Day
14h 01m
Last Quarter, 42% of the Moon is Illuminated
May 13
Last Quarter
May 20
New
May 28
First Quarter
Jun 4
Full
Jun 11
Last Quarter

Hourly Weather History & Observations

Time (EDT) Temp. Dew Point Humidity Pressure Visibility Wind Dir Wind Speed Gust Speed Precip Events Conditions
12:15 AM 62.8 °F 52.0 °F 68% 30.28 in 10.0 mi South 4.6 mph - N/A   Clear
12:35 AM 62.4 °F 52.2 °F 69% 30.28 in 10.0 mi South 3.5 mph - N/A   Clear
12:55 AM 61.9 °F 52.2 °F 70% 30.27 in 10.0 mi South 4.6 mph - N/A   Clear
1:15 AM 61.5 °F 52.5 °F 72% 30.27 in 10.0 mi South 3.5 mph - N/A   Clear
1:35 AM 61.2 °F 52.7 °F 74% 30.27 in 10.0 mi South 3.5 mph - N/A   Clear
1:55 AM 61.2 °F 52.7 °F 74% 30.26 in 10.0 mi Calm Calm - N/A   Clear
2:15 AM 60.8 °F 52.9 °F 75% 30.26 in 10.0 mi Calm Calm - N/A   Clear
2:35 AM 60.3 °F 53.2 °F 78% 30.26 in 10.0 mi Calm Calm - N/A   Clear
2:55 AM 58.1 °F 53.8 °F 86% 30.25 in 10.0 mi Calm Calm - N/A   Clear
3:15 AM 57.7 °F 54.0 °F 87% 30.25 in 10.0 mi Calm Calm - N/A   Clear
3:35 AM 58.5 °F 53.8 °F 84% 30.26 in 10.0 mi Calm Calm - N/A   Clear
3:55 AM 59.0 °F 53.8 °F 83% 30.26 in 10.0 mi Calm Calm - N/A   Clear
4:15 AM 59.4 °F 54.0 °F 82% 30.26 in 10.0 mi SSE 3.5 mph - N/A   Clear
4:35 AM 59.9 °F 54.0 °F 81% 30.26 in 10.0 mi Calm Calm - N/A   Clear
4:55 AM 59.5 °F 54.0 °F 82% 30.26 in 10.0 mi Calm Calm - N/A   Clear
5:15 AM 58.6 °F 54.0 °F 84% 30.26 in 10.0 mi Calm Calm - N/A   Clear
5:35 AM 57.2 °F 54.1 °F 89% 30.26 in 10.0 mi Calm Calm - N/A   Clear
5:55 AM 56.8 °F 54.0 °F 90% 30.26 in 10.0 mi Calm Calm - N/A   Clear
6:15 AM 56.8 °F 54.1 °F 91% 30.26 in 10.0 mi Calm Calm - N/A   Clear
6:35 AM 57.0 °F 54.3 °F 91% 30.26 in 10.0 mi Calm Calm - N/A   Clear
6:55 AM 57.4 °F 54.7 °F 91% 30.27 in 10.0 mi Calm Calm - N/A   Clear
7:15 AM 57.9 °F 55.2 °F 91% 30.27 in 10.0 mi Calm Calm - N/A   Clear
7:35 AM 58.8 °F 55.4 °F 88% 30.28 in 10.0 mi Calm Calm - N/A   Clear
8:15 AM 63.3 °F 56.5 °F 78% 30.28 in 10.0 mi Calm Calm - N/A   Clear
8:35 AM 65.8 °F 57.2 °F 74% 30.29 in 10.0 mi SSW 3.5 mph - N/A   Clear
8:55 AM 68.5 °F 56.8 °F 66% 30.28 in 10.0 mi SSE 3.5 mph - N/A   Clear
9:15 AM 70.3 °F 56.8 °F 62% 30.28 in 10.0 mi SSE 4.6 mph - N/A   Clear
9:35 AM 70.9 °F 57.2 °F 62% 30.28 in 10.0 mi South 5.8 mph - N/A   Clear
9:55 AM 72.0 °F 57.9 °F 61% 30.27 in 10.0 mi SSE 5.8 mph - N/A   Clear
10:15 AM 72.5 °F 57.6 °F 59% 30.27 in 10.0 mi SSE 6.9 mph - N/A   Clear
10:35 AM 72.7 °F 57.9 °F 60% 30.27 in 10.0 mi South 5.8 mph - N/A   Scattered Clouds
11:15 AM 75.7 °F 57.4 °F 53% 30.26 in 10.0 mi SSE 5.8 mph - N/A   Mostly Cloudy
11:35 AM 74.3 °F 56.7 °F 54% 30.26 in 10.0 mi SW 6.9 mph - N/A   Overcast
11:55 AM 74.7 °F 55.9 °F 52% 30.26 in 10.0 mi SSW 5.8 mph - N/A   Mostly Cloudy
12:15 PM 75.4 °F 55.8 °F 50% 30.25 in 10.0 mi SSW 5.8 mph - N/A   Scattered Clouds
12:35 PM 76.1 °F 54.7 °F 47% 30.24 in 10.0 mi South 5.8 mph - N/A   Scattered Clouds
1:15 PM 76.5 °F 54.5 °F 46% 30.23 in 10.0 mi SSE 8.1 mph - N/A   Scattered Clouds
1:35 PM 76.6 °F 54.9 °F 47% 30.23 in 10.0 mi South 9.2 mph - N/A   Scattered Clouds
1:55 PM 77.4 °F 53.4 °F 43% 30.22 in 10.0 mi South 6.9 mph - N/A   Mostly Cloudy
2:15 PM 78.3 °F 53.4 °F 42% 30.21 in 10.0 mi South 5.8 mph - N/A   Mostly Cloudy
2:35 PM 78.1 °F 52.2 °F 40% 30.21 in 10.0 mi SSE 6.9 mph 10.4 mph N/A   Mostly Cloudy
2:55 PM 77.5 °F 51.8 °F 41% 30.20 in 10.0 mi SSE 8.1 mph - N/A   Mostly Cloudy
3:15 PM 77.9 °F 51.6 °F 40% 30.19 in 10.0 mi South 9.2 mph - N/A   Mostly Cloudy
3:35 PM 77.0 °F 50.5 °F 39% 30.19 in 10.0 mi South 8.1 mph - N/A   Overcast
3:55 PM 75.7 °F 52.3 °F 44% 30.18 in 10.0 mi South 5.8 mph - N/A   Overcast
4:15 PM 75.2 °F 52.0 °F 44% 30.18 in 10.0 mi South 5.8 mph - N/A   Overcast
4:35 PM 74.8 °F 52.0 °F 45% 30.17 in 10.0 mi South 4.6 mph - N/A   Overcast
4:55 PM 74.7 °F 52.9 °F 46% 30.17 in 10.0 mi SSW 4.6 mph - N/A   Overcast
5:15 PM 74.3 °F 54.5 °F 50% 30.17 in 10.0 mi Calm Calm - N/A   Overcast
5:35 PM 74.1 °F 55.2 °F 52% 30.17 in 10.0 mi SSW 4.6 mph - N/A   Overcast
5:55 PM 73.6 °F 55.0 °F 52% 30.16 in 10.0 mi South 5.8 mph - N/A   Overcast
6:15 PM 73.6 °F 55.0 °F 52% 30.16 in 10.0 mi Calm Calm - N/A   Overcast
6:35 PM 73.0 °F 55.9 °F 55% 30.16 in 10.0 mi SSW 5.8 mph - N/A   Overcast
6:55 PM 72.3 °F 56.5 °F 57% 30.16 in 10.0 mi SSW 4.6 mph - N/A   Overcast
7:15 PM 71.8 °F 57.0 °F 60% 30.16 in 10.0 mi SW 4.6 mph - N/A   Overcast
7:35 PM 70.9 °F 58.5 °F 65% 30.17 in 10.0 mi SW 3.5 mph - N/A   Overcast
7:55 PM 70.2 °F 59.2 °F 68% 30.17 in 10.0 mi Calm Calm - N/A   Overcast
8:15 PM 69.4 °F 59.9 °F 72% 30.17 in 10.0 mi Calm Calm - N/A   Overcast
8:35 PM 68.9 °F 60.4 °F 74% 30.17 in 10.0 mi Calm Calm - N/A Rain Light Rain
8:55 PM 68.5 °F 60.8 °F 76% 30.17 in 10.0 mi Calm Calm - N/A   Light Drizzle
9:15 PM 67.6 °F 62.2 °F 83% 30.18 in 10.0 mi Calm Calm - N/A   Overcast
9:35 PM 66.9 °F 63.0 °F 87% 30.18 in 10.0 mi Calm Calm - N/A   Overcast
9:55 PM 66.7 °F 63.5 °F 89% 30.18 in 10.0 mi Calm Calm - N/A   Overcast
10:15 PM 66.4 °F 62.6 °F 88% 30.18 in 10.0 mi East 3.5 mph - N/A   Overcast
10:35 PM 66.6 °F 61.9 °F 85% 30.18 in 10.0 mi Calm Calm - N/A   Overcast
10:55 PM 67.1 °F 61.3 °F 82% 30.18 in 10.0 mi Calm Calm - N/A   Overcast
11:15 PM 67.8 °F 59.5 °F 75% 30.18 in 10.0 mi Calm Calm - N/A   Overcast
11:35 PM 67.6 °F 59.4 °F 75% 30.18 in 10.0 mi Calm Calm - N/A   Overcast
11:55 PM 67.5 °F 58.8 °F 74% 30.17 in 10.0 mi Calm Calm - N/A   Overcast